GFSNIL_con_sbcape_021.txt.gz
CAPE
29 16 25 68 217 202 320 412 511 488 386 360 408 379 395 325 350 431 545 558 585 555
30 117 251 206 148 221 271 292 467 464 412 524 399 192 428 305 272 463 339 32 26 132
124 264 106 152 317 313 322 267 393 377 477 504 503 377 393 251 374 382 254 185 318 339
321 35 74 164 256 385 397 310 269 237 417 488 63 43 126 180 70 60 103 145 133 166
151 7 128 260 182 359 483 375 219 167 254 11 2 6 15 27 8 61 11 53 61 118
141 20 91 301 376 383 469 381 235 171 168 0 1 13 26 17 10 35 69 28 68 130
155 21 108 304 421 491 471 417 364 332 160 0 2 3 4 10 28 33 40 119 266 231
124 32 105 301 315 363 451 366 316 323 204 2 3 3 5 7 29 41 46 41 22 81
149 1 174 272 273 406 370 305 264 252 260 38 2 0 0 1 6 36 57 16 18 3
52 43 197 83 117 392 471 471 392 207 197 5 3 0 0 0 7 66 27 15 23 4
20 41 102 15 4 157 424 386 95 66 32 6 3 1 0 0 33 40 74 49 27 6
83 10 29 0 0 2 53 104 18 12 5 1 0 1 1 8 19 21 60 50 50 62
29 35 0 1 0 0 11 34 115 39 8 0 1 1 0 0 4 2 8 25 13 0
39 198 99 113 0 0 0 35 78 43 18 5 1 0 1 0 61 47 17 46 13 0

GFSNIL_con_sbcape_024.txt.gz
CAPE
669 558 496 583 512 451 738 716 657 699 678 690 667 641 675 688 763 852 1022 726 491 555
720 678 585 574 446 488 612 500 625 620 650 689 641 693 752 890 830 833 932 800 768 996
725 575 555 652 414 398 479 361 535 607 586 640 655 670 720 708 731 764 662 85 328 597
655 408 503 525 479 436 435 401 431 478 526 593 692 702 712 609 550 462 626 647 599 652
559 367 528 494 588 587 528 330 246 323 482 393 397 543 369 411 422 412 344 426 427 567
536 426 510 496 574 469 376 291 228 316 498 167 381 323 172 158 129 242 384 310 227 408
495 391 501 568 628 485 467 344 234 225 228 92 44 73 49 79 159 150 458 220 336 280
492 382 469 462 574 556 562 516 395 381 144 62 53 36 72 74 101 78 370 486 322 296
392 324 471 471 513 548 538 502 489 561 378 163 21 0 0 2 164 186 256 415 345 128
277 351 406 392 397 596 621 642 496 418 345 79 43 0 0 0 173 308 326 284 74 23
225 414 395 508 606 622 761 704 442 160 196 104 13 0 0 0 139 237 450 125 391 229
249 421 351 297 778 782 666 21 74 113 70 82 7 0 0 0 214 342 330 383 174 164
176 273 108 97 698 829 785 564 168 70 2 0 1 1 1 10 17 66 95 210 101 0
312 194 279 97 645 853 653 654 375 95 91 62 3 0 1 1 34 58 20 69 48 0

GFSNIL_con_sbcape_030.txt.gz
CAPE
1639 1362 1408 1444 1187 1249 1250 1104 983 754 685 812 813 594 783 741 423 419 590 331 393 477
1458 1533 1389 1350 1247 1234 1194 834 812 670 864 774 700 745 739 416 557 506 376 515 377 398
1183 1178 1309 1227 1091 919 1063 500 876 907 839 788 641 637 621 548 997 446 266 204 483 471
1226 755 1195 837 974 990 718 790 541 520 901 703 591 458 548 702 337 227 150 132 101 147
682 698 923 929 983 875 492 563 557 502 605 400 605 872 500 434 605 517 299 156 124 105
910 949 987 1014 952 855 746 377 272 281 257 483 602 519 452 422 374 393 241 164 168 110
1177 796 981 997 868 897 339 289 264 480 430 469 264 170 216 227 339 384 221 145 304 61
825 875 834 802 797 788 166 241 159 456 341 190 34 56 283 286 330 457 292 160 195 3
660 559 833 695 897 930 725 665 470 539 166 197 0 0 0 0 322 424 245 193 15 0
653 514 691 666 644 752 905 695 526 439 343 6 0 0 0 0 445 276 275 158 127 70
485 462 570 325 860 987 932 729 690 556 174 8 0 0 0 0 358 261 245 167 149 40
500 636 609 709 1039 1214 862 483 203 391 203 4 0 0 0 6 291 242 160 136 92 16
558 634 911 884 1062 1099 946 443 280 74 47 0 0 1 0 0 135 39 1 3 0 0
747 860 1108 1155 1033 1117 823 280 47 53 13 71 3 0 1 0 121 113 12 7 1 0

GFSNIL_con_sbcape_036.txt.gz
CAPE
0 8 15 1 0 9 0 0 0 0 0 0 0 0 0 0 0 0 0 0 0 0
46 58 9 0 0 0 0 0 0 0 0 0 0 6 0 0 5 11 0 0 0 0
40 33 9 0 0 0 0 0 0 0 0 0 0 0 0 4 11 0 0 5 1 0
31 39 0 0 0 0 0 0 0 17 25 0 0 0 0 0 6 0 0 11 39 13
38 0 0 0 0 0 0 0 8 76 22 6 0 0 0 0 9 18 1 9 3 3
56 0 0 0 0 0 0 0 3 16 39 7 0 0 0 4 21 29 15 9 26 46
0 0 0 0 0 0 2 6 14 20 3 0 0 0 0 0 7 28 18 43 32 24
0 0 0 0 0 5 43 24 18 0 0 0 0 0 0 2 6 14 11 3 3 5
0 0 0 0 0 24 25 23 8 0 0 0 0 0 0 0 24 1 0 0 0 1
7 10 0 0 0 9 20 7 0 0 0 0 0 1 2 2 0 0 0 1 2 1
3 3 0 0 0 0 0 0 0 0 0 0 0 1 2 0 0 0 0 0 1 1
6 4 0 0 0 0 0 0 0 0 0 0 0 1 1 0 0 1 1 1 2 1
2 0 0 0 0 0 0 3 0 0 0 0 0 1 1 0 0 0 0 0 0 0
1 0 0 0 0 0 0 0 0 0 0 0 0 1 1 0 0 0 0 0 0 0